GW7247 Weather Reports


time (UTC)temp
F
wind
direction
speed
knots
gust
knots
rain 1hr
in
rain 24hr
in
rain mn
in
humidity
%
barometer
mb
20260505011006 55 125 0.0 0.9 0.00 0.00 0.00 59 1006.8
20260505010507 55 109 0.0 0.9 0.00 0.00 0.00 59 1006.8
20260505010015 56 110 0.0 0.9 0.00 0.00 0.00 58 1006.7
20260505005508 56 106 0.0 0.0 0.00 0.00 0.00 56 1006.7
20260505005008 57 106 0.0 0.0 0.00 0.00 0.00 54 1006.6
20260505004519 58 106 0.0 0.0 0.00 0.00 0.00 53 1006.4
20260505004008 58 106 0.0 1.7 0.00 0.00 0.00 51 1006.2
20260505003508 59 106 0.0 1.7 0.00 0.00 0.00 50 1006.1
20260505003027 60 120 0.0 0.9 0.00 0.00 0.00 48 1006.1
20260505002511 60 94 0.0 0.9 0.00 0.00 0.00 45 1006.1
20260505002008 61 92 0.0 0.9 0.00 0.00 0.00 44 1005.9
20260505001528 61 151 0.0 0.0 0.00 0.00 0.00 43 1005.8
20260505001007 62 151 0.0 0.0 0.00 0.00 0.00 41 1005.7
20260505000506 62 151 0.0 0.9 0.00 0.00 0.00 42 1005.6
20260505000013 63 190 0.0 0.9 0.00 0.00 0.00 40 1005.7
20260504235507 63 150 0.0 0.9 0.00 0.00 0.00 38 1005.6
20260504235006 64 233 0.0 0.0 0.00 0.00 0.00 38 1005.6
20260504234516 64 233 0.0 0.0 0.00 0.00 0.00 38 1005.5
20260504234006 65 234 0.0 0.0 0.00 0.00 0.00 36 1005.5
20260504233507 66 233 0.0 3.5 0.00 0.00 0.00 35 1005.5
20260504233020 67 234 0.0 3.5 0.00 0.00 0.00 34 1005.4
20260504232507 67 248 0.9 3.5 0.00 0.00 0.00 35 1005.3
20260504232010 67 221 0.0 2.6 0.00 0.00 0.00 34 1005.2
20260504231529 68 238 1.7 6.1 0.00 0.00 0.00 33 1005.1
20260504231007 68 245 0.0 6.1 0.00 0.00 0.00 33 1004.9
20260504230509 68 213 1.7 4.3 0.00 0.00 0.00 32 1004.9
20260504230028 68 148 0.0 4.3 0.00 0.00 0.00 33 1004.9
20260504225512 68 160 0.9 4.3 0.00 0.00 0.00 32 1004.9
20260504225006 68 281 1.7 4.3 0.00 0.00 0.00 32 1004.8
20260504224517 68 253 0.0 5.2 0.00 0.00 0.00 32 1004.8
20260504224006 68 231 1.7 5.2 0.00 0.00 0.00 32 1004.8
20260504223509 69 261 0.9 4.3 0.00 0.00 0.00 32 1004.7
20260504223017 68 143 0.9 4.3 0.00 0.00 0.00 32 1004.7
20260504222505 69 246 0.9 4.3 0.00 0.00 0.00 32 1004.7
20260504222008 69 45 0.9 5.2 0.00 0.00 0.00 31 1004.7
20260504221525 69 256 0.0 6.1 0.00 0.00 0.00 31 1004.7
20260504221011 69 103 0.9 6.1 0.00 0.00 0.00 31 1004.7
20260504220509 69 147 1.7 6.1 0.00 0.00 0.00 30 1004.7
20260504220024 70 256 1.7 5.2 0.00 0.00 0.00 31 1004.7
20260504215512 70 246 1.7 10.4 0.00 0.00 0.00 30 1004.8
20260504215009 70 60 0.9 10.4 0.00 0.00 0.00 30 1004.7
20260504214537 70 198 4.3 10.4 0.00 0.00 0.00 29 1004.9
20260504214012 71 262 1.7 10.4 0.00 0.00 0.00 29 1004.8
20260504213506 71 134 2.6 10.4 0.00 0.00 0.00 29 1004.9
20260504213015 71 219 1.7 5.2 0.00 0.00 0.00 30 1004.8
20260504212509 71 226 0.9 4.3 0.00 0.00 0.00 31 1004.7
20260504212008 71 11 1.7 7.8 0.00 0.00 0.00 31 1004.8
20260504211522 71 255 3.5 7.8 0.00 0.00 0.00 30 1004.8
20260504211010 71 265 0.9 7.0 0.00 0.00 0.00 30 1004.7
20260504210514 71 218 2.6 7.0 0.00 0.00 0.00 30 1004.7
20260504210022 71 315 1.7 8.7 0.00 0.00 0.00 31 1004.7
20260504205511 70 2 2.6 8.7 0.00 0.00 0.00 31 1004.7
20260504205014 70 236 2.6 8.7 0.00 0.00 0.00 31 1004.6
20260504204525 71 229 0.9 9.6 0.00 0.00 0.00 32 1004.6
20260504204008 71 213 3.5 9.6 0.00 0.00 0.00 31 1004.7
20260504203510 71 21 0.9 8.7 0.00 0.00 0.00 31 1004.7
20260504203030 71 105 0.9 9.6 0.00 0.00 0.00 32 1004.6
20260504202511 71 327 2.6 9.6 0.00 0.00 0.00 31 1004.6
20260504202007 71 240 2.6 9.6 0.00 0.00 0.00 31 1004.6
20260504201519 71 270 0.9 7.0 0.00 0.00 0.00 33 1004.6
20260504201008 71 242 3.5 7.0 0.00 0.00 0.00 33 1004.6
20260504200508 70 285 0.9 6.1 0.00 0.00 0.00 33 1004.6
20260504200022 70 2 3.5 12.2 0.00 0.00 0.00 33 1004.7
20260504195506 70 217 4.3 12.2 0.00 0.00 0.00 32 1004.5
20260504195009 71 234 1.7 12.2 0.00 0.00 0.00 33 1004.5
20260504194524 70 348 2.6 12.2 0.00 0.00 0.00 33 1004.7
20260504194010 70 274 1.7 8.7 0.00 0.00 0.00 34 1004.6
20260504193519 70 218 1.7 8.7 0.00 0.00 0.00 34 1004.7
20260504193026 69 271 2.6 8.7 0.00 0.00 0.00 35 1004.7
20260504192512 69 245 2.6 5.2 0.00 0.00 0.00 34 1004.7
20260504192010 69 272 1.7 6.1 0.00 0.00 0.00 36 1004.8
20260504191528 68 252 0.9 6.1 0.00 0.00 0.00 35 1004.9
20260504191011 67 174 1.7 5.2 0.00 0.00 0.00 36 1005.0
20260504190513 67 257 1.7 6.1 0.00 0.00 0.00 38 1005.0
20260504190021 67 209 2.6 6.1 0.00 0.00 0.00 36 1005.1
20260504185507 66 23 0.9 5.2 0.00 0.00 0.00 38 1005.1
20260504185002 66 215 0.9 4.3 0.00 0.00 0.00 36 1005.1
20260504184503 66 99 0.0 5.2 0.00 0.00 0.00 38 1005.1
20260504184003 65 345 0.9 7.0 0.00 0.00 0.00 37 1005.1
20260504183504 65 269 0.9 7.0 0.00 0.00 0.00 36 1005.1
20260504183007 65 311 0.9 8.7 0.00 0.00 0.00 36 1005.0
20260504182505 66 208 2.6 8.7 0.00 0.00 0.00 35 1005.1
20260504182008 66 238 0.0 9.6 0.00 0.00 0.00 35 1005.0
20260504181512 66 261 3.5 9.6 0.00 0.00 0.00 34 1005.0
20260504181007 67 262 1.7 9.6 0.00 0.00 0.00 34 1005.0
20260504180507 67 27 1.7 11.3 0.00 0.00 0.00 35 1005.1
20260504180017 67 72 3.5 11.3 0.00 0.00 0.00 33 1005.0
20260504175507 67 117 2.6 9.6 0.00 0.00 0.00 33 1005.1
20260504175008 67 186 2.6 7.8 0.00 0.00 0.00 34 1005.0
20260504174520 67 105 2.6 12.2 0.00 0.00 0.00 33 1005.0
20260504174003 67 247 1.7 12.2 0.00 0.00 0.00 32 1004.9
20260504173506 68 266 2.6 8.7 0.00 0.00 0.00 32 1004.9
20260504173003 67 252 3.5 18.2 0.00 0.00 0.00 32 1004.9
20260504172507 67 224 7.0 18.2 0.00 0.00 0.00 30 1004.9
20260504172006 67 199 7.0 13.0 0.00 0.00 0.00 30 1005.0
20260504171507 67 213 4.3 13.0 0.00 0.00 0.00 31 1004.8
20260504171008 67 198 2.6 13.9 0.00 0.00 0.00 32 1004.8
20260504170505 67 231 5.2 13.9 0.00 0.00 0.00 32 1004.9
20260504151002 63 206 4.3 13.0 0.00 0.00 0.00 41 1006.1
20260504150504 62 165 3.5 13.0 0.00 0.00 0.00 41 1006.2
20260504141017 58 231 1.7 8.7 0.00 0.00 0.00 46 1007.0
20260504140509 58 224 3.5 8.7 0.00 0.00 0.00 46 1007.1
20260504130507 53 200 3.5 8.7 0.00 0.00 0.00 55 1007.8
20260504110508 44 201 0.9 2.6 0.00 0.00 0.00 60 1008.2
20260504100504 41 238 0.0 1.7 0.00 0.00 0.00 61 1008.2
20260504081527 38 203 0.0 1.7 0.00 0.00 0.00 66 1008.2
20260504081012 38 221 0.0 0.0 0.00 0.00 0.00 67 1008.1
20260504080508 38 221 0.0 0.0 0.00 0.00 0.00 67 1008.1
20260504050509 37 217 0.9 1.7 0.00 0.00 0.00 69 1007.9
20260504050020 37 236 0.0 1.7 0.00 0.00 0.00 69 1007.9
20260504045506 37 229 0.0 1.7 0.00 0.00 0.00 70 1007.9
20260504045014 37 241 0.0 1.7 0.00 0.00 0.00 71 1007.8
20260504044522 37 235 0.0 1.7 0.00 0.00 0.00 71 1007.8
20260504044006 37 235 0.0 1.7 0.00 0.00 0.00 72 1007.8
20260504043510 37 233 0.0 0.9 0.00 0.00 0.00 72 1007.7
20260504043025 37 233 0.0 0.9 0.00 0.00 0.00 71 1007.7
20260504042510 37 233 0.0 0.0 0.00 0.00 0.00 71 1007.8
20260504042011 37 235 0.0 0.0 0.00 0.00 0.00 71 1007.7
20260504041509 37 235 0.0 0.9 0.00 0.00 0.00 70 1007.7
20260504041005 37 235 0.0 0.9 0.00 0.00 0.00 69 1007.7
20260504040506 37 224 0.0 0.0 0.00 0.00 0.00 70 1007.7
20260504040016 37 225 0.0 0.9 0.00 0.00 0.00 69 1007.6
20260504035507 37 225 0.0 0.9 0.00 0.00 0.00 69 1007.6
20260504035010 37 224 0.0 0.9 0.00 0.00 0.00 70 1007.6
20260504034520 37 206 0.0 0.0 0.00 0.00 0.00 72 1007.5
20260504034010 36 206 0.0 0.0 0.00 0.00 0.00 72 1007.5
20260504033509 37 206 0.0 0.0 0.00 0.00 0.00 71 1007.4
20260504033022 37 206 0.0 0.0 0.00 0.00 0.00 70 1007.4
20260504032509 37 206 0.0 0.0 0.00 0.00 0.00 70 1007.4
20260504032010 38 206 0.0 0.9 0.00 0.00 0.00 71 1007.4
20260504031526 38 214 0.0 0.9 0.00 0.00 0.00 69 1007.4
20260504031012 38 214 0.0 0.9 0.00 0.00 0.00 69 1007.4
20260504030510 37 202 0.0 0.0 0.00 0.00 0.00 71 1007.4
20260504030014 37 202 0.0 0.0 0.00 0.00 0.00 68 1007.4
20260504025507 38 202 0.0 0.0 0.00 0.00 0.00 68 1007.4
20260504025009 38 202 0.0 0.0 0.00 0.00 0.00 68 1007.3
20260504024518 38 202 0.0 0.0 0.00 0.00 0.00 67 1007.4
20260504024009 38 202 0.0 0.0 0.00 0.01 0.00 67 1007.3
20260504023508 38 202 0.0 0.0 0.00 0.01 0.00 67 1007.3
20260504023021 39 202 0.0 0.0 0.00 0.01 0.00 67 1007.3
20260504022510 39 202 0.0 0.0 0.00 0.01 0.00 66 1007.5
20260504022008 39 204 0.0 0.0 0.00 0.01 0.00 65 1007.4
20260504021509 40 304 0.0 0.0 0.00 0.01 0.00 63 1007.4
20260504021002 40 304 0.0 0.0 0.00 0.01 0.00 63 1007.4
20260504020505 40 304 0.0 0.0 0.00 0.01 0.00 63 1007.4
20260504020010 40 304 0.0 0.0 0.00 0.01 0.00 63 1007.3
20260504015505 40 304 0.0 0.0 0.00 0.01 0.00 62 1007.2
20260504015006 40 304 0.0 0.0 0.00 0.01 0.00 62 1007.3
20260504014514 41 304 0.0 0.0 0.00 0.01 0.00 61 1007.2
20260504014006 41 304 0.0 0.0 0.00 0.01 0.00 60 1007.2
20260504013511 41 304 0.0 0.0 0.00 0.01 0.00 58 1007.2
20260504013022 42 304 0.0 0.0 0.00 0.01 0.00 58 1007.2
20260504012510 42 304 0.0 0.0 0.00 0.01 0.00 57 1007.1
20260504012009 43 304 0.0 0.0 0.00 0.01 0.00 56 1007.1
20260504011522 43 304 0.0 0.0 0.00 0.01 0.00 55 1007.1